This is the latest recevied weather packets stored in our database for station/object VE4KL-13. If no packets are shown the sender has not sent any weather packets the latest 10 day(s).
| Time | Temp. | Humidity | Pressure | Rain* | Wind** | Luminosity | Snow |
|---|---|---|---|---|---|---|---|
| 1788159331 | 66° F | 95% | 754.5 mmHg | 0.27 in | - | - | - |
| 1788159025 | 66° F | 95% | 754.5 mmHg | 0.27 in | - | - | - |
| 1788158719 | 66° F | 95% | 755.1 mmHg | 0.28 in | - | - | - |
| 1788158430 | 67° F | 95% | 755.1 mmHg | 0.34 in | - | - | - |
| 1788158124 | 67° F | 95% | 755.5 mmHg | 0.38 in | - | - | - |
| 1788157817 | 67° F | 94% | 755.5 mmHg | 0.36 in | - | - | - |
| 1788157529 | 67° F | 94% | 755.5 mmHg | 0.32 in | - | - | - |
| 1788157222 | 68° F | 94% | 755.4 mmHg | 0.29 in | - | - | - |
| 1788156916 | 68° F | 94% | 755.4 mmHg | 0.28 in | - | - | - |
| 1788156628 | 68° F | 94% | 755.3 mmHg | 0.25 in | - | - | - |
| 1788156321 | 68° F | 94% | 755.3 mmHg | 0.23 in | - | - | - |
| 1788156032 | 68° F | 94% | 755.1 mmHg | 0.21 in | - | - | - |
| 1788155726 | 68° F | 94% | 755.1 mmHg | 0.2 in | - | - | - |
| 1788155420 | 68° F | 94% | 755.1 mmHg | 0.18 in | - | - | - |
| 1788155131 | 68° F | 94% | 755.1 mmHg | 0.15 in | - | - | - |
| 1788154825 | 69° F | 94% | 755.1 mmHg | 0.08 in | - | - | - |
| 1788154518 | 69° F | 94% | 754.9 mmHg | 0.01 in | - | - | - |
| 1788154230 | 69° F | 94% | 754.9 mmHg | 0 in | - | - | - |
| 1788153923 | 69° F | 94% | 754.9 mmHg | 0 in | - | - | - |
| 1788153616 | 69° F | 94% | 754.9 mmHg | 0.02 in | - | - | - |
| 1788153328 | 69° F | 94% | 754.9 mmHg | 0.05 in | - | - | - |
| 1788153021 | 69° F | 94% | 755 mmHg | 0.08 in | - | - | - |
| 1788152715 | 69° F | 94% | 755 mmHg | 0.08 in | - | - | - |
| 1788152426 | 69° F | 94% | 754.9 mmHg | 0.09 in | - | - | - |
| 1788152120 | 69° F | 94% | 754.9 mmHg | 0.09 in | - | - | - |
* Rain latest hour (hover to see other rain measurements)
** Current wind speed in m/s (hover to see current wind gust speed)